Vorticity
nan nan nan nan nan nan nan nan nan nan nan nan nan nan nan nan nan nan nan nan nan nan nan nan nan nan nan nan nan nan nan nan
nan 8 8 8 8 9 9 7 6 6 7 7 9 9 6 7 10 9 8 7 6 4 8 10 8 8 8 7 8 8 7 nan
nan 7 5 7 7 7 7 7 7 5 7 8 9 10 9 8 9 10 6 8 8 5 7 7 6 8 8 7 7 7 9 nan
nan 6 5 8 6 7 7 9 5 7 7 6 7 7 9 8 7 7 7 11 12 7 7 8 6 7 9 8 8 7 7 nan
nan 8 7 6 7 10 7 9 6 9 6 8 7 6 6 8 8 7 7 7 9 9 8 9 8 7 9 8 7 7 9 nan
nan 9 8 6 9 7 10 10 8 7 8 7 6 7 7 7 10 10 8 5 6 10 11 9 7 6 11 8 6 7 6 nan
nan 10 8 7 8 9 10 8 8 7 8 9 8 7 6 7 7 5 8 8 7 9 10 7 7 7 7 12 10 5 6 nan
nan 9 9 9 8 7 9 10 7 9 7 7 9 7 7 9 6 6 5 5 9 8 8 8 7 7 5 7 10 9 9 nan
nan 9 9 9 9 8 9 7 9 9 6 6 8 5 5 10 9 7 8 7 9 8 5 7 8 7 5 4 6 9 9 nan
nan 11 12 10 10 9 9 6 10 8 8 7 7 7 8 9 10 6 8 8 8 9 7 6 7 8 7 4 4 6 6 nan
nan 17 12 10 10 9 9 9 8 10 10 7 9 9 6 8 10 10 7 10 10 9 7 6 6 7 8 6 4 5 5 nan
nan 16 17 13 10 10 9 9 7 9 10 10 8 9 9 7 6 9 10 10 11 10 10 8 6 6 7 8 8 7 5 nan
nan 12 14 14 10 10 8 8 9 8 10 11 10 10 10 8 9 9 9 9 9 10 10 10 8 7 7 7 7 7 7 nan
nan 14 17 13 14 11 10 9 8 8 9 9 9 9 9 10 10 9 9 10 9 10 10 11 10 9 8 8 8 6 6 nan
nan 10 14 20 15 11 11 11 12 9 8 10 8 9 8 8 9 10 11 9 10 10 10 9 10 10 10 9 8 8 7 nan
nan 11 9 11 22 23 10 11 11 11 8 7 10 9 9 10 10 9 9 9 10 9 10 9 9 9 11 13 10 10 10 nan
nan 9 10 10 9 15 22 19 9 11 11 8 9 10 9 8 9 10 9 9 10 10 10 9 6 8 14 12 8 9 11 nan
nan 10 9 9 12 12 15 16 21 17 10 10 10 10 9 9 10 9 10 10 10 10 9 10 9 8 13 13 8 5 8 nan
nan nan nan nan nan nan nan nan nan nan nan nan nan nan nan nan nan nan nan nan nan nan nan nan nan nan nan nan nan nan nan nan
CAPE
61 16 61 0 108 89 37 11 4 1 2 4 2 1 2 4 5 0 0 0 27 59 59 81 56 90 80 2 12 2 0 0
160 132 81 15 101 94 8 5 3 6 4 5 4 5 4 11 12 3 3 2 23 57 50 60 52 24 12 5 25 3 5 0
232 215 102 5 24 34 7 12 6 5 5 4 3 4 5 2 5 0 0 14 30 42 56 63 60 42 25 75 26 48 29 13
220 332 258 0 12 0 4 14 17 5 6 11 3 4 8 12 13 3 1 8 39 49 82 77 76 56 104 76 74 81 54 16
213 386 348 72 5 0 0 4 8 11 10 4 6 2 3 6 0 3 0 3 17 17 52 83 97 97 100 111 158 167 161 67
107 391 385 279 42 13 0 0 2 10 12 6 11 6 3 0 9 15 0 0 16 30 11 48 62 83 104 116 150 198 118 100
23 422 405 295 80 4 0 0 9 4 10 10 7 16 7 3 5 1 0 0 0 11 12 9 36 65 87 145 160 166 112 71
4 344 361 311 141 1 10 0 5 9 14 13 2 2 4 3 2 1 0 0 0 0 0 0 12 22 30 53 75 82 60 25
2 185 408 383 262 6 0 0 0 2 3 5 2 3 2 5 3 3 0 0 0 0 0 0 0 1 4 4 4 42 36 41
0 23 462 441 366 61 0 0 0 0 2 4 7 17 21 0 3 1 2 0 0 0 0 0 0 0 0 0 3 4 12 25
36 26 519 497 473 261 6 0 0 19 2 0 3 2 11 5 6 3 6 0 0 0 0 0 0 0 0 0 0 1 9 11
8 57 356 600 596 440 186 3 0 3 39 11 0 1 5 3 4 8 6 10 1 0 0 0 0 0 0 0 0 0 1 0
30 37 216 470 602 553 400 192 23 2 11 32 25 29 10 8 28 5 7 8 7 0 6 1 0 0 0 0 0 0 9 7
0 0 93 199 554 557 563 377 199 57 14 47 51 37 49 46 43 55 29 31 1 3 0 4 1 0 0 0 0 0 3 10
0 0 0 178 341 588 548 586 394 202 126 50 60 64 65 52 30 43 118 72 48 26 1 3 0 0 0 0 0 0 0 0
0 0 0 0 25 556 547 562 624 394 237 171 70 92 111 102 70 62 63 59 81 37 24 2 0 0 0 0 0 0 0 0
1 0 2 5 11 1 146 539 580 596 443 370 211 90 84 141 137 93 71 54 61 73 68 31 3 0 0 0 0 0 0 1
0 0 0 2 27 45 0 0 311 591 621 550 440 279 152 136 172 128 116 85 57 62 68 62 48 31 4 0 0 0 0 0
0 0 0 11 23 0 0 11 0 64 607 631 593 512 358 281 198 170 153 123 93 73 49 51 46 51 33 0 0 0 0 0